Location: St. Louis
(38.6270°N, 90.1994°W)
Time: 14:12:10
(UTC-06:00)

Vanguard 1 - Pass Details

Date: 07 December 2021
Orbit: 652 x 3830 km, 34.2° (Epoch: 19 January)

Event Time Altitude Azimuth Distance (km) Brightness Sun altitude
Rises 02:10:08 0° 270° (W) 7,654 - -56.6°
Reaches altitude 10° 02:15:04 10° 270° (W) 6,804 - -55.7°
Maximum altitude 02:38:49 76° 190° (S) 3,632 - -51.2°
Exits shadow 02:40:24 74° 161° (SSE) 3,593 12.5 -50.9°
Drops below altitude 10° 02:56:26 10° 109° (ESE) 5,293 14.2 -47.8°
Sets 02:59:43 0° 107° (ESE) 5,966 14.7 -47.2°
